Ingeniero Juan Guillermo Villasana Airport

Jump to: basic info | weather | frequencies | runways | comments

Related pages: nearby airports | nearby navaids | notams | map

Basic information (top)

Codes: MMPC
Location: lon 20.077400, lat -98.782501, elev 7,600 ft / 2,316 m msl
Status: small_airport

Weather (top)

Current conditions for Licenciado Benito Juarez International Airport 42nm (77km) SSW (rec'd 2014/08/28 22:45Z):

MMMX 282245Z 33009KT 10SM SCT020TCU BKN200 25/08 A3020 NOSIG RMK 8/202 HZY

Airport forecast for Licenciado Benito Juarez International Airport 42nm (77km) SSW (rec'd 2014/08/28 18:37Z):

TAF MMMX 281728Z 2818/2924 04010KT P6SM SCT020 SCT200 TX26/2821Z TN15/2912Z 
      TEMPO 2900/2904 BKN020CB 
     FM290600 00000KT P6SM SCT100 
      TEMPO 2912/2915 4SM HZ SCT015

Frequencies (top)

Verify before use: may be inaccurate or out of date.

AFIS: 122.9 MHz (AFIS)

Runways (top)

03/21: 6,825 x 85 ft (2,080 x 26 m) — paved — not lighted — threshold 03 displaced 656 ft (200 m) — threshold 21 displaced 865 ft (264 m)

Latest comments (top)

No comments yet for Ingeniero Juan Guillermo Villasana Airport

More... (top)

See also NOTAMs and nearby airports and navaids, or visit the Ingeniero Juan Guillermo Villasana Airport page at the main OurAirports website..